map of LOO home
Great Circle Mapper logo
LOO - Airport
Location
City:  Laghouat, Algeria
ICAO / IATA:DAUL / LOO

Details
Type:Airport (Aerodrome, Airfield)
Use:Military
Latitude:3345'52"N (33.764383)
Longitude:255'42"E (2.928344)
Datum:WGS 1984
Elevation:2510 ft (765 m)
Variation:0.63E (WMM2015 magnetic declination)
0.10 annual change
Runways:2
Longest:12486 × 148 ft (3806 × 45 m), paved

Time
Time Zone:UTC+1
Local Time:

Weather
METAR:DAUL 070400Z 01010KT CAVOK 04/M03 Q1027

Related Locations
Nearby:
Farthest:NZOP: 12006 mi / 19322 km
Opotiki, NZ

Find:

   beyond  
but within

Other Information
Maps:
NOTAMs:
Links:
Sources:

  
flag of Algeria   

Sectional Chart

Flight Planning
at skyvector.com

Satellite Image

Google Maps Satellite View

 

Copyright © 2004-2015 Karl L. Swartz. All rights reserved.
The Great Circle Mapper name and logo are trademarks of the Great Circle Mapper.
All other trademarks mentioned herein belong to their respective owners.
Please see credits for attibutions and further copyright information.

  Follow gcmap on Facebook Follow gcmap on Twitter Follow gcmap on Google+

hCard Microformat

Geo Microformat